Orbital Elements at Epoch 2459200.5 (2020-Dec-17.0) TDB
Reference: JPL 26 (heliocentric ecliptic J2000)
Element | Value | Uncertainty (1-sigma) | Units |
e | .0723614592472895 | 3.9965e-08 | |
a | 3.160747623342682 | 2.5948e-08 | au |
q | 2.932031313005203 | 1.2253e-07 | au |
i | 8.547289642652666 | 4.3006e-06 | deg |
node | 123.8950338166597 | 2.9409e-05 | deg |
peri | 199.0050256097817 | 4.3894e-05 | deg |
M | 136.0360390152797 | 3.3287e-05 | deg |
tp | 2458424.905654464031 (2018-Nov-02.40565446) | 0.00019029 | TDB |
period | 2052.499958202893 5.62 | 2.5275e-05 6.92e-08 | d yr |
n | .1753958622806527 | 2.1599e-09 | deg/d |
Q | 3.38946393368016 | 2.7826e-08 | au |
|
| | Orbit Determination Parameters
Additional Information
|